West Palm Beach, FL

11:30 AM EDT on October 14, 2019 (GMT -0400)
Palm Beach International

Weather History for KPBI - May, 2019

Change the Weather History Date:

Friday, May 24, 2019

  Actual Average Record
Temperature  
Mean Temperature 83 °F 80 °F  
Max Temperature 87 °F 87 °F 96 °F (1917)
Min Temperature 78 °F 73 °F 57 °F (1892)
Degree Days  
Heating Degree Days 0 0  
Month to date heating degree days 0 0  
Since 1 July heating degree days 144 233  
Cooling Degree Days 18 15  
Month to date cooling degree days 354 307  
Year to date cooling degree days 1279 1002  
Growing Degree Days 30 (Base 50)    
Moisture  
Dew Point 64 °F    
Average Humidity 60    
Maximum Humidity 69    
Minimum Humidity 51    
Precipitation  
Precipitation 0.00 in 0.20 in 2.37 in (1970)
Month to date precipitation 5.29 3.00  
Year to date precipitation 21.01 17.20  
Snow  
Snow 0.00 in - - ()
Month to date snowfall 0.0  
Since 1 July snowfall 0.0  
Snow Depth 0.00 in    
Sea Level Pressure  
Sea Level Pressure 30.10 in    
Wind  
Wind Speed 13 mph (ENE)    
Max Wind Speed 24 mph    
Max Gust Speed 28 mph    
Visibility 10 miles    
Events      
T = Trace of Precipitation, MM = Missing Value Source: NWS Daily Summary

Daily Weather History Graph

Daily Weather History Graph

Search for Another Location

Airport or City:

Astronomy

May. 24, 2019 Rise Set
Actual Time 6:29 AM EDT 8:05 PM EDT
Civil Twilight 6:03 AM EDT 8:31 PM EDT
Nautical Twilight 5:33 AM EDT 9:01 PM EDT
Astronomical Twilight 5:00 AM EDT 9:33 PM EDT
Moon 12:30 AM EDT (5/24) 11:26 AM EDT (5/24)
Length of Visible Light 14h 27m
Length of Day
13h 36m
Waning Gibbous, 69% of the Moon is Illuminated
May 24
Waning Gibbous
May 26
Last Quarter
Jun 3
New
Jun 10
First Quarter
Jun 17
Full

Hourly Weather History & Observations

Time (EDT) Temp. Heat Index Dew Point Humidity Pressure Visibility Wind Dir Wind Speed Gust Speed Precip Events Conditions
12:53 AM 77.0 °F - 63.0 °F 62% 30.12 in 10.0 mi East 17.3 mph - N/A   Scattered Clouds
1:53 AM 77.0 °F - 62.1 °F 60% 30.11 in 10.0 mi East 17.3 mph - N/A   Partly Cloudy
2:53 AM 75.9 °F - 62.1 °F 62% 30.09 in 10.0 mi East 17.3 mph - N/A   Scattered Clouds
3:53 AM 75.9 °F - 62.1 °F 62% 30.09 in 10.0 mi East 17.3 mph - N/A   Partly Cloudy
4:53 AM 75.9 °F - 63.0 °F 64% 30.08 in 10.0 mi East 11.5 mph - N/A   Scattered Clouds
5:53 AM 75.0 °F - 62.1 °F 64% 30.08 in 10.0 mi East 11.5 mph - N/A   Scattered Clouds
6:53 AM 75.9 °F - 64.0 °F 67% 30.08 in 10.0 mi East 11.5 mph - N/A   Scattered Clouds
7:53 AM 78.1 °F - 63.0 °F 60% 30.09 in 10.0 mi ENE 13.8 mph - N/A   Scattered Clouds
8:53 AM 79.0 °F - 63.0 °F 58% 30.09 in 10.0 mi East 13.8 mph - N/A   Mostly Cloudy
9:53 AM 82.0 °F 83.8 °F 64.9 °F 56% 30.11 in 10.0 mi ENE 13.8 mph - N/A   Mostly Cloudy
10:53 AM 81.0 °F 82.7 °F 64.9 °F 58% 30.12 in 10.0 mi East 18.4 mph 21.9 mph N/A   Scattered Clouds
11:53 AM 82.0 °F 83.8 °F 64.9 °F 56% 30.12 in 10.0 mi ENE 15.0 mph - N/A   Scattered Clouds
12:53 PM 82.9 °F 84.6 °F 64.9 °F 54% 30.12 in 10.0 mi NE 15.0 mph 23.0 mph N/A   Scattered Clouds
1:53 PM 82.0 °F 84.5 °F 66.9 °F 60% 30.11 in 10.0 mi NE 17.3 mph 27.6 mph N/A   Scattered Clouds
2:53 PM 84.0 °F 85.4 °F 64.0 °F 51% 30.11 in 10.0 mi East 16.1 mph 24.2 mph N/A   Scattered Clouds
3:53 PM 82.9 °F 84.4 °F 64.0 °F 53% 30.10 in 10.0 mi NE 18.4 mph 25.3 mph N/A   Scattered Clouds
4:53 PM 84.0 °F 85.8 °F 64.9 °F 53% 30.09 in 10.0 mi ENE 15.0 mph - N/A   Scattered Clouds
5:53 PM 82.0 °F 83.1 °F 63.0 °F 52% 30.09 in 10.0 mi NE 18.4 mph - N/A   Scattered Clouds
6:53 PM 81.0 °F 82.5 °F 64.0 °F 56% 30.08 in 10.0 mi NE 13.8 mph - N/A   Scattered Clouds
7:53 PM 79.0 °F - 63.0 °F 58% 30.09 in 10.0 mi ENE 12.7 mph - N/A   Scattered Clouds
8:53 PM 79.0 °F - 63.0 °F 58% 30.09 in 10.0 mi ENE 15.0 mph - N/A   Scattered Clouds
9:53 PM 78.1 °F - 63.0 °F 60% 30.10 in 10.0 mi ENE 13.8 mph - N/A   Scattered Clouds
10:53 PM 78.1 °F - 63.0 °F 60% 30.12 in 10.0 mi ENE 10.4 mph - N/A   Scattered Clouds
11:53 PM 78.1 °F - 63.0 °F 60% 30.12 in 10.0 mi East 12.7 mph - N/A   Scattered Clouds